Weather in Keri

Greece     37°39′35″N   20°48′56″E
temp.,
°C
wind,
m/s
gust,
m/s
humid.,
%
clouds,
%
prec.,
mm/h
press.,
hPa
HPBL,
m
5 march, fri
fri523:00+12nw33690 0.0 1023262
02:00+12wnw34670 0.0 1022366
05:00+11wnw23670 0.0 1021384
08:00+12w22700 0.0 1021424
11:00+13wsw336167 0.0 1021864
14:00+14wsw435984 0.0 1020855
17:00+13wsw2362100 0.0 1020899
20:00+12sw1166100 0.0 1020422
6 march, sat
sat623:00+12wsw1167100 0.0 1021394
02:00+12wsw0167100 0.0 1022513
05:00+11e1173100 0.3 1021169
08:00+11e117883 0.4 1022128
11:00+14sse11680 0.0 1022635
14:00+15wsw22651 0.0 1022751
17:00+14nw44687 0.0 1021561
20:00+13nw45783 0.0 1022306
7 march, sun
sun723:00+12nnw34820 0.0 1023267
02:00+12nne12830 0.0 1023140
05:00+12n23860 0.0 1022161
08:00+12n23850 0.0 1023179
11:00+15nne23670 0.0 1022657
14:00+16w22660 0.0 1022671
17:00+15wsw22710 0.0 1020625
20:00+13wsw22790 0.0 1021354
8 march, mon
mon823:00+12wsw23810 0.0 1021404
02:00+12wsw33813 0.0 1020440
05:00+12wnw238328 0.0 1018397
08:00+12nw118261 0.0 1018298
11:00+14sw017394 0.1 1018561
14:00+15w117496 0.4 1017576
17:00+14n227684 0.4 1015560
20:00+12nnw228647 0.6 1015203
9 march, tue
tue923:00+12ne2286100 0.0 1016148
02:00+12ene2287100 0.0 1015186
05:00+11ene3387100 0.0 1013176
08:00+12ne458097 0.0 1013219
11:00+14nne5572100 0.0 1014410
14:00+15nne3457100 0.0 1013568
17:00+16nnw345954 0.0 1012307
20:00+13nw688117 0.0 1013277